THY9704 LTAC-LBSF

Flight info

Callsign THY9704
Flight time N/A
Altitude 40000
Route YAVRU UA4 ERKAL UL615 VADEN Y520 OSTEX DCT ADUNO P92 PDV N739 RUMEN
Aircraft B38M/M-SDE1FGHILORVWXY/HB1

Departure

Time 2026-04-30 12:48
Airport Esenboğa International Airport (LTAC)

Arrival

Time N/A
Airport Sofia Airport (LBSF)
Time Latitude Longitude Altitude Speed Heading
2026-04-30 12:18 40.11657 32.99232 3137 ft 0 kts 155°
2026-04-30 12:33 40.11662 32.99228 3137 ft 2 kts 155°
2026-04-30 12:33 40.11680 32.99217 3137 ft 3 kts 152°
2026-04-30 12:33 40.11698 32.99204 3137 ft 3 kts 149°
2026-04-30 12:34 40.11715 32.99191 3137 ft 3 kts 147°
2026-04-30 12:34 40.11732 32.99176 3137 ft 2 kts 146°
2026-04-30 12:34 40.11738 32.99171 3137 ft 0 kts 146°
2026-04-30 12:39 40.11726 32.99177 3137 ft 4 kts 170°
2026-04-30 12:39 40.11708 32.99137 3137 ft 8 kts 301°
2026-04-30 12:39 40.11774 32.99072 3137 ft 16 kts 324°
2026-04-30 12:40 40.11894 32.99083 3137 ft 23 kts 39°
2026-04-30 12:40 40.12047 32.99227 3136 ft 31 kts 39°
2026-04-30 12:40 40.12239 32.99419 3136 ft 37 kts 36°
2026-04-30 12:40 40.12417 32.99587 3136 ft 27 kts 36°
2026-04-30 12:41 40.12564 32.99728 3137 ft 23 kts 36°
2026-04-30 12:41 40.12695 32.99854 3137 ft 24 kts 36°
2026-04-30 12:41 40.12828 32.99981 3137 ft 24 kts 37°
2026-04-30 12:41 40.12962 33.00109 3136 ft 24 kts 36°
2026-04-30 12:42 40.13092 33.00232 3137 ft 20 kts 34°
2026-04-30 12:42 40.13182 33.00319 3137 ft 15 kts 36°
2026-04-30 12:42 40.13275 33.00408 3137 ft 19 kts 36°
2026-04-30 12:42 40.13399 33.00526 3137 ft 24 kts 36°
2026-04-30 12:43 40.13534 33.00656 3137 ft 24 kts 36°
2026-04-30 12:43 40.13617 33.00730 3137 ft 14 kts 33°
2026-04-30 12:43 40.13693 33.00817 3137 ft 15 kts 41°
2026-04-30 12:43 40.13782 33.00895 3137 ft 16 kts 30°
2026-04-30 12:44 40.13879 33.00968 3136 ft 17 kts 30°
2026-04-30 12:44 40.13968 33.01063 3137 ft 17 kts 29°
2026-04-30 12:44 40.14070 33.01042 3137 ft 11 kts 316°
2026-04-30 12:44 40.14075 33.01036 3137 ft 0 kts 313°
2026-04-30 12:46 40.14083 33.01023 3138 ft 5 kts 307°
2026-04-30 12:46 40.14108 33.00959 3138 ft 11 kts 290°
2026-04-30 12:46 40.14149 33.00866 3137 ft 13 kts 306°
2026-04-30 12:46 40.14205 33.00765 3136 ft 14 kts 298°
2026-04-30 12:47 40.14179 33.00660 3135 ft 13 kts 211°
2026-04-30 12:47 40.14100 33.00588 3135 ft 17 kts 219°
2026-04-30 12:47 40.13835 33.00328 3137 ft 82 kts 216°
2026-04-30 12:47 40.13201 32.99721 3137 ft 142 kts 216°
2026-04-30 12:48 40.12294 32.98886 3359 ft 169 kts 216°
2026-04-30 12:48 40.11304 32.97996 3998 ft 178 kts 220°
2026-04-30 12:48 40.10306 32.97027 4891 ft 179 kts 219°
2026-04-30 12:48 40.09281 32.96033 5457 ft 188 kts 219°
2026-04-30 12:49 40.08195 32.94997 6045 ft 199 kts 218°
2026-04-30 12:49 40.07009 32.93877 6494 ft 219 kts 218°
2026-04-30 12:49 40.05708 32.92647 6917 ft 243 kts 218°
2026-04-30 12:49 40.04311 32.91332 7564 ft 253 kts 217°
2026-04-30 12:50 40.02972 32.89821 8471 ft 255 kts 234°
2026-04-30 12:50 40.02258 32.87690 9042 ft 270 kts 262°
2026-04-30 12:50 40.02464 32.85239 9816 ft 276 kts 290°
2026-04-30 12:50 40.03486 32.83115 10674 ft 282 kts 304°
2026-04-30 12:51 40.04690 32.81008 11192 ft 297 kts 303°
2026-04-30 12:51 40.05974 32.78744 11608 ft 316 kts 304°
2026-04-30 12:51 40.07290 32.76437 12202 ft 327 kts 304°
2026-04-30 12:51 40.08666 32.74027 12922 ft 331 kts 304°
2026-04-30 12:52 40.10042 32.71618 13807 ft 333 kts 304°
2026-04-30 12:52 40.11438 32.69171 14497 ft 338 kts 304°
2026-04-30 12:52 40.12850 32.66692 15245 ft 340 kts 304°
2026-04-30 12:52 40.14270 32.64200 15898 ft 345 kts 304°
2026-04-30 12:53 40.15702 32.61683 15998 ft 345 kts 304°
2026-04-30 12:53 40.17135 32.59163 16015 ft 344 kts 304°
2026-04-30 12:53 40.18564 32.56647 16023 ft 344 kts 304°
2026-04-30 12:53 40.19996 32.54129 16023 ft 344 kts 304°
2026-04-30 12:54 40.21623 32.51834 16035 ft 347 kts 314°
2026-04-30 12:54 40.23173 32.49434 16714 ft 343 kts 300°
2026-04-30 12:54 40.24505 32.46825 17389 ft 348 kts 302°
2026-04-30 12:54 40.25887 32.44194 18028 ft 352 kts 302°
2026-04-30 12:55 40.27284 32.41558 18662 ft 354 kts 302°
2026-04-30 12:55 40.28704 32.38896 19236 ft 357 kts 302°
2026-04-30 12:55 40.30133 32.36221 19822 ft 359 kts 302°
2026-04-30 12:55 40.31571 32.33531 20388 ft 362 kts 302°
2026-04-30 12:56 40.33017 32.30823 20997 ft 363 kts 302°
2026-04-30 12:56 40.34468 32.28106 21552 ft 366 kts 302°
2026-04-30 12:56 40.35917 32.25390 22105 ft 368 kts 301°
2026-04-30 12:56 40.37389 32.22629 22669 ft 370 kts 301°
2026-04-30 12:57 40.38870 32.19846 23204 ft 373 kts 301°
2026-04-30 12:57 40.40361 32.17046 23706 ft 376 kts 301°
2026-04-30 12:57 40.41858 32.14229 24137 ft 378 kts 301°
2026-04-30 12:57 40.43366 32.11389 24573 ft 380 kts 301°
2026-04-30 12:58 40.44883 32.08532 25006 ft 382 kts 301°
2026-04-30 12:58 40.45911 32.06593 25290 ft 384 kts 301°
2026-04-30 12:58 40.47439 32.03707 25691 ft 386 kts 301°
2026-04-30 12:58 40.48956 32.00843 26085 ft 388 kts 301°
2026-04-30 12:59 40.50501 31.97921 26487 ft 390 kts 301°
2026-04-30 12:59 40.52053 31.94982 26925 ft 392 kts 301°
2026-04-30 12:59 40.53610 31.92031 27306 ft 394 kts 301°
2026-04-30 12:59 40.55175 31.89066 27720 ft 396 kts 301°
2026-04-30 13:00 40.56748 31.86078 28119 ft 398 kts 301°
2026-04-30 13:00 40.58202 31.82979 28473 ft 396 kts 290°
2026-04-30 13:00 40.59083 31.79562 28830 ft 396 kts 286°
2026-04-30 13:00 40.59970 31.76119 29138 ft 399 kts 286°
2026-04-30 13:01 40.60853 31.72638 29499 ft 402 kts 286°
2026-04-30 13:01 40.61729 31.69134 29869 ft 403 kts 286°
2026-04-30 13:01 40.62600 31.65622 30196 ft 405 kts 286°
2026-04-30 13:01 40.63474 31.62086 30478 ft 407 kts 286°
2026-04-30 13:02 40.64352 31.58524 30768 ft 408 kts 285°
2026-04-30 13:02 40.65229 31.54962 31047 ft 410 kts 285°
2026-04-30 13:02 40.66110 31.51379 31354 ft 411 kts 285°
2026-04-30 13:02 40.66989 31.47795 31736 ft 410 kts 285°
2026-04-30 13:03 40.67865 31.44222 32174 ft 408 kts 285°
2026-04-30 13:03 40.68733 31.40678 32552 ft 407 kts 285°
2026-04-30 13:03 40.69588 31.37174 32888 ft 407 kts 285°
2026-04-30 13:03 40.70455 31.33618 33278 ft 406 kts 285°
2026-04-30 13:04 40.71316 31.30084 33654 ft 405 kts 285°
2026-04-30 13:04 40.72175 31.26554 34034 ft 403 kts 285°
2026-04-30 13:04 40.73030 31.23033 34339 ft 403 kts 285°
2026-04-30 13:04 40.73884 31.19510 34578 ft 403 kts 285°
2026-04-30 13:05 40.74737 31.15990 34852 ft 403 kts 285°
2026-04-30 13:05 40.75585 31.12478 35120 ft 403 kts 285°
2026-04-30 13:05 40.76437 31.08951 35386 ft 402 kts 285°
2026-04-30 13:06 40.78128 31.01928 35911 ft 402 kts 285°
2026-04-30 13:06 40.78972 30.98414 36156 ft 401 kts 285°
2026-04-30 13:06 40.79814 30.94907 36393 ft 401 kts 285°
2026-04-30 13:06 40.80653 30.91403 36627 ft 400 kts 285°
2026-04-30 13:07 40.81493 30.87889 36839 ft 401 kts 285°
2026-04-30 13:07 40.82331 30.84384 37052 ft 400 kts 285°
2026-04-30 13:07 40.83165 30.80884 37275 ft 400 kts 285°
2026-04-30 13:07 40.83991 30.77418 37486 ft 400 kts 285°
2026-04-30 13:08 40.84836 30.73868 37679 ft 400 kts 285°
2026-04-30 13:08 40.85668 30.70366 37863 ft 400 kts 285°
2026-04-30 13:08 40.86464 30.66904 38064 ft 398 kts 281°
2026-04-30 13:08 40.87083 30.63346 38257 ft 397 kts 281°
2026-04-30 13:09 40.87713 30.59801 38432 ft 397 kts 282°
2026-04-30 13:09 40.88353 30.56249 38575 ft 397 kts 282°
2026-04-30 13:09 40.88999 30.52683 38721 ft 397 kts 282°
2026-04-30 13:09 40.89642 30.49139 38844 ft 397 kts 282°
2026-04-30 13:10 40.90285 30.45592 38946 ft 397 kts 282°
2026-04-30 13:10 40.91570 30.38489 39135 ft 397 kts 282°
2026-04-30 13:11 40.92836 30.31368 39299 ft 398 kts 281°
2026-04-30 13:11 40.94089 30.24244 39463 ft 398 kts 281°
2026-04-30 13:12 40.95342 30.17097 39619 ft 398 kts 281°
2026-04-30 13:12 40.96590 30.09952 39765 ft 399 kts 281°
2026-04-30 13:13 40.97834 30.02801 39893 ft 399 kts 281°
2026-04-30 13:13 40.98453 29.99229 40019 ft 397 kts 281°
2026-04-30 13:14 41.00268 29.88573 40099 ft 398 kts 281°
2026-04-30 13:14 41.02021 29.78228 40093 ft 398 kts 281°
2026-04-30 13:15 41.03827 29.67511 40092 ft 398 kts 281°
2026-04-30 13:16 41.05032 29.60356 40083 ft 398 kts 281°
2026-04-30 13:16 41.06235 29.53210 40083 ft 397 kts 281°
2026-04-30 13:17 41.08029 29.42490 40089 ft 397 kts 281°
2026-04-30 13:18 41.09801 29.31837 40087 ft 397 kts 281°
2026-04-30 13:18 41.11577 29.21098 40087 ft 397 kts 281°
2026-04-30 13:19 41.13097 29.14095 40072 ft 398 kts 297°
2026-04-30 13:19 41.16033 29.07835 40092 ft 401 kts 299°
2026-04-30 13:20 41.19075 29.01609 40103 ft 402 kts 300°
2026-04-30 13:20 41.22161 28.95401 40109 ft 403 kts 300°
2026-04-30 13:21 41.25249 28.89208 40108 ft 402 kts 300°
2026-04-30 13:22 41.29887 28.79889 40107 ft 402 kts 300°
2026-04-30 13:22 41.34485 28.70623 40104 ft 402 kts 300°
2026-04-30 13:23 41.39103 28.61286 40107 ft 402 kts 300°
2026-04-30 13:24 41.45235 28.48845 40111 ft 402 kts 300°
2026-04-30 13:25 41.51354 28.36382 40112 ft 401 kts 300°
2026-04-30 13:26 41.58957 28.20830 40112 ft 401 kts 299°
2026-04-30 13:28 41.66546 28.05229 40120 ft 400 kts 299°
2026-04-30 13:28 41.71081 27.95866 40122 ft 399 kts 299°
2026-04-30 13:29 41.77108 27.83378 40116 ft 398 kts 299°
2026-04-30 13:31 41.84598 27.67788 40121 ft 397 kts 298°
2026-04-30 13:32 41.92042 27.52211 40116 ft 396 kts 298°